Simultaneous Nadir Overpasses (SNOs) Predictions

Prediction of SNOs between NOAA-21 and PACE Satellite Orbit:

Table of predicted SNOs for the next 14.0 days since TLE Epoch: 9/27/2024
Index Date (NOAA-21) Time (NOAA-21) Lat,Lon (NOAA-21) SZA (NOAA-21 ) Date (PACE) Time (PACE) Lat,Lon (PACE) SZA (PACE ) Distance(km) Time Diff (sec)
1 09/28/2024 03:00:59 -79.82, -82.36 96.23 09/28/2024 03:00:52 -79.82, -82.42 96.22 1.35 7
2 09/30/2024 06:36:47 79.88, 43.06 84.70 09/30/2024 06:37:04 79.88, 43.10 84.69 0.80 17
3 10/02/2024 10:12:32 -79.91, 168.90 94.45 10/02/2024 10:13:14 -79.92, 168.79 94.45 2.38 42
4 10/02/2024 11:03:12 79.74, -22.15 85.27 10/02/2024 11:02:18 79.74, -22.17 85.29 0.45 54
5 10/04/2024 13:48:20 79.99, -65.85 86.51 10/04/2024 13:49:24 79.99, -65.81 86.48 0.94 64
6 10/04/2024 14:38:56 -79.74, 103.91 93.93 10/04/2024 14:38:26 -79.74, 103.77 93.90 2.82 30
7 10/06/2024 18:14:45 79.86,-131.18 87.10 10/06/2024 18:14:36 79.86,-131.13 87.09 1.03 9
8 10/08/2024 21:50:29 -79.87, -5.22 92.09 10/08/2024 21:50:42 -79.87, -5.22 92.10 0.36 13
9 10/11/2024 01:26:15 79.92, 120.38 88.80 10/11/2024 01:26:48 79.93, 120.34 88.79 1.07 33



Historial Predications of SNOs between NOAA-21 and PACE
